Regional Weather Roundup
Issued by NWS Wakefield, VA

Home | Current Version | Previous Version | Graphics & Text | Print | Product List | Glossary On
Versions: 1 2 3 4 5 6 7 8 9 10 11 12 13 14 15 16 17 18 19 20 21 22 23 24 25 26 27 28 29 30 31 32 33 34 35 36 37 38 39 40 41 42 43 44 45 46 47 48 49 50
000
ASUS41 KAKQ 230410
RWRAKQ

REGIONAL WEATHER ROUNDUP
NATIONAL WEATHER SERVICE WAKEFIELD VA
1200 AM EDT SAT AUG 23 2014

Note: "fair" indicates few or no clouds below 12,000 feet with no
significant weather and/or obstructions to visibility. * = Denotes
station may not report precipitation (e.g., rain,snow,etc.),
thunder or fog.

VAZ042-051-052>054-056-230500-
NORTHERN VIRGINIA

CITY           SKY/WX    TMP DP  RH WIND       PRES   REMARKS
WASH NATIONAL  CLOUDY    76  68  76 E5        30.02R
DULLES         MOCLDY    72  68  87 SE6       30.01R
FORT BELVOIR   MOCLDY    72  69  92 E1        30.01R
QUANTICO       CLOUDY    75  70  84 E5        30.01R
FREDERICKSBRG* PTCLDY    73  73 100 CALM      29.99R
STAFFORD*      PTCLDY    73  73 100 E3        30.04S
WARRENTON      CLOUDY    74  74 100 CALM      30.00S
CULPEPER*      PTCLDY   N/A N/A N/A CALM      30.00S HAZE
MANASSAS*      MOCLDY    73  73 100 CALM      30.00S
LEESBURG*      CLOUDY    73  72  94 SE3       30.02R
WINCHESTER     CLOUDY    72  70  94 E5        30.00F
$$

VAZ048-049-060>072-079>083-230500-
CENTRAL AND SOUTH CENTRAL VIRGINIA...AND NORTH CENTRAL NORTH CAROLINA

CITY           SKY/WX    TMP DP  RH WIND       PRES   REMARKS
RICHMOND       CLOUDY    74  70  87 NE3       29.99R
CHESTERFIELD*  PTCLDY    73  63  68 CALM      30.00S
HANOVER        CLOUDY    72  70  93 CALM      30.01R
TAPPAHANNOCK*  PTCLDY    72  68  87 CALM      30.00S
CHARLOTTSVILLE HVY RAIN  72  70  93 N5        30.00R FOG
ORANGE*        CLOUDY    72  70  94 CALM      30.01S
LOUISA*        CLOUDY    72  70  94 CALM      29.99S
FARMVILLE*     CLOUDY    75  73  94 N3        29.97S
SOUTH HILL*    MOCLDY    75  75 100 CALM      30.03S
ROANOKE RAPIDS MOCLDY    72  72 100 CALM      29.97F
RALEIGH        MOCLDY    80  72  76 VRB3      29.98R
$$

VAZ088>098-230500-
SOUTHEAST VIRGINIA

CITY           SKY/WX    TMP DP  RH WIND       PRES   REMARKS
NORFOLK        CLOUDY    76  70  82 NE7       29.97R
VIRGINIA BEACH MOCLDY    75  71  87 NE5       29.96S
NORFOLK NAVAL  MOCLDY    77  71  82 E8        29.98S
WEST POINT*    PTCLDY    74  71  91 CALM      30.00R
NEWPORT NEWS   PTCLDY    78  72  81 NE6       29.98S
LANGLEY AFB    CLOUDY    76  75  97 E10       29.97R
FORT EUSTIS    PTCLDY    75  75 100 E5        29.96S
WILLIAMSBURG*  CLEAR     73  73 100 CALM      29.99R
FRANKLIN*      PTCLDY    72  70  94 CALM      29.97S
WAKEFIELD      PTCLDY    71  68  90 CALM      29.98R FOG
$$

VAZ020-022-025-037-045-230500-
WESTERN AND SOUTHWEST VIRGINIA

CITY           SKY/WX    TMP DP  RH WIND       PRES   REMARKS
STAUNTON*      CLOUDY    73  70  89 CALM      30.03S
HOT SPRINGS VA CLOUDY    65  65 100 W12       30.16S FOG
LYNCHBURG      CLOUDY   N/A N/A N/A N3        30.02R
DANVILLE       LGT RAIN  76  74  93 CALM      29.98S
MARTINSVILLE   CLOUDY    76  75  99 CALM      30.02S FOG
ROANOKE        CLOUDY    74  70  87 W3        30.03S
BLACKSBURG     LGT RAIN  70  70 100 CALM      30.09F
DUBLIN*        CLOUDY    71  70  95 SW3       30.08F
MARION*        TSTM     N/A N/A N/A CALM      30.15S
HILLSVILLE*    DRIZZLE   67  66  96 W3        30.11F
RICHLANDS*     RAIN      71  69  94 W6        30.14S
WISE*          CLOUDY    68  68 100 CALM      30.16S
ABINGDON*      TSTM      72  70  95 CALM      30.11S
$$

MDZ021>025-VAZ099-100-230500-
SOUTHERN MARYLAND AND THE DELMARVA PENINSULA

CITY           SKY/WX    TMP DP  RH WIND       PRES   REMARKS
PATUXENT RIVER CLOUDY    73  68  84 E9        30.00R
BAY BRIDGE APT   N/A     72  64  78 E5        30.02S
LEONARDTOWN    MOCLDY    72  66  83 E3        30.02R
DOVER          CLEAR     69  64  84 VRB5      30.00S
GEORGETOWN     CLEAR     69  65  86 E9        30.01S
EASTON         CLEAR     71  70  96 CALM      30.05S
CAMBRIDGE      CLEAR     70  66  88 NE3       30.00S
SALISBURY      PTCLDY    71  66  84 CALM      30.00S
OCEAN CITY     PTCLDY    73  67  81 NE7       30.00R
WALLOPS ISLAND MOCLDY    74  69  85 E12       29.99S
ACCOMACK*      PTCLDY    70  68  94 NE5       29.98S
$$

NCZ012>017-030>032-230500-
EASTERN NORTH CAROLINA

CITY           SKY/WX    TMP DP  RH WIND       PRES   REMARKS
ELIZABETH CITY PTCLDY    76  72  87 N7        29.96S
AHOSKIE*       PTCLDY    72  70  93 CALM      29.97F
EDENTON*       MOCLDY    75  72  89 CALM      29.96S
CURRITUCK*     PTCLDY    73  69  86 CALM      29.96F
KILL DEVIL HLS PTCLDY    77  73  90 NE3       29.94S
MANTEO         MOCLDY    75  73  94 NE5       29.95S
CAPE HATTERAS  MOCLDY    76  73  91 NE5       29.95R
GOLDSBORO      MOCLDY    75  74  98 CALM      29.95S
WASHINGTON     MOCLDY    75  72  89 CALM      29.97S
GREENVILLE     MOCLDY    77  72  83 NE5       29.98F
NEW BERN       PTCLDY    81  72  74 CALM      29.97S
WILMINGTON     LGT RAIN  75  74  96 CALM      29.95F
$$

VAZ048-230500-
ELSEWHERE

CITY           SKY/WX    TMP DP  RH WIND       PRES   REMARKS
HARRISBURG PA  CLOUDY    73  68  84 S7        30.01R
BALTIMORE      MOCLDY    72  67  84 E7        30.02R
ANNAPOLIS        N/A     73  67  81 E10       30.01S
ANDREWS AFB    PTCLDY    71  69  96 NE3       30.01S
WILMINGTON DE  MOCLDY    70  62  76 E5        30.05R
PHILADELPHIA   CLOUDY    70  62  76 NE6       30.04S
WILDWOOD NJ*   CLEAR     70  61  73 NE3       30.03R
ATLANTIC CITY  PTCLDY    64  62  93 NE6       30.02S
HENDERSON NC   MOCLDY    74  72  93 CALM      29.98S
GREENSBORO     CLOUDY    80  72  76 CALM      29.99S
ROCKY MOUNT    CLOUDY    76  73  91 CALM      29.97S
FAYETTEVILLE   CLEAR     76  70  82 SE3       29.96S
CHARLOTTE      CLOUDY    80  71  74 E6        30.00S
$$

VAZ100-230500-
MARINE

STATION/POSITION TIME  TEMP    WIND        PRES    WAVE   SWELL
                       AIR SEA DIR/SP/G            HT/PER HT/PER
                 (UTC) (F)     (DEG/KT/KT) (MB)    (FT/S) (FT/S)
44066 TX TWR #4  0400   70 72   60/ 16/ 17 1015.6R   4/ 5   2/ 8
CAPE MAY NJ      0400   70 80   40/  2/  4 1015.8R
LEWES DE         0400   73 76   70/ 11/ 13 1015.9R
15NM E FENWICK I 0400   73 75              1015.4R   3/ 8
OCEAN-CITY-INLET 0400   73 76   70/  6/  8 1015.2S
WACHAPREAGUE VA  0400   75 82   50/ 10/ 13 1015.2S
THOMAS POINT MD  0400   73 78  100/ 13/ 14 1016.7R
GOOSES REEF MD   0400   74     100/ 12/ 14 1016.4R
COVE POINT MD    0400   72     120/  9/ 11 1016.0R
SOLOMONS ISLAND  0400      79                N/A
BISHOPS HEAD MD  0400   73 79   80/  9/ 12 1015.3F
PINEY POINT MD   0400           90/ 10/ 13   N/A
POTOMAC MD       0400   75     100/ 12/ 14 1015.0R
CAMBRIDGE MD     0400   72 79   60/  8/ 11 1015.9R
LEWISETTA VA     0400   75 80  100/ 14/ 17 1015.1F
RAPPAHANNOCK LGT 0400           50/ 11/ 12 1015.7F
STINGRAY PT      0400   76      90/ 10/ 14 1015.9R
YORK RVR RNG VA  0400   76      80/ 11/ 12 1014.5R
YORKTOWN VA      0400   76 81   60/ 11/ 13 1014.8R
JAMESTOWN VA     0400   74      70/  4/  8   N/A
DOMINION TERM VA 0400   77      40/  3/  7 1014.9R
KIPTOPEKE VA     0400      82   60/  4/  7   N/A
CHES BAY BRIDGE  0400   76 78   50/ 12/ 14 1014.2S
CAPE HENRY VA    0400   76      60/ 11/ 12 1013.4F
CHESAPEAKE LGHT  0300   76      60/ 12/ 13 1015.2R
WILLOUBY STN VA  0400   77      70/  9/ 10 1013.6S
S CRANEY ISL VA  0400           60/  6/  8 1014.5S
CAPE HENRY BUOY  0400      78                N/A     2/ 8
1ST LANDING BUOY 0400   77      60/ 12/ 14 1014.4S
CAPE CHARLES BUO 0400      78                N/A     2/ 7   2/ 7
OFFSHORE WE BUOY 0400      78                N/A     2/ 7   2/ 7
64NM E OF VA BCH 0400   78 78   50/ 10/ 12 1013.7R   2/ 8   2/ 8
DUCK PIER NC     0400   78 81   30/  9/ 10 1013.6R
44056 DUCK FRF   0400                        N/A     2/ 7
OREGON INLET NC  0400   78 83  360/  5/  6 1014.0F
HATTERAS NC      0400   80 82   40/  4/  5 1014.4F
DIAMOND SHLS NC  0400   78     340/  6/  8 1013.9R   2/ 8   2/ 8
CAPE LOOKOUT NC  0300   82      40/  2/  3 1014.1R
$$


USA.gov is the U.S. government's official web portal to all federal, state and local government web resources and services.